QPF
0.03 0.02 0.01 0.02 0.02 0.02 0.03 0.04 0.03 0.03 0.03 0.03 0.03 0.03 0.03 0.04 0.05 0.07 0.03 0.03 0.02 0.02 0.02 0.02 0.01 0.02 0.02 0.01 0.01 0.01 0.01 0.00 0.01 0.01 0.01 0.01 0.01 0.01 0.01 0.01 0.01 0.01 0.00
0.03 0.03 0.02 0.02 0.03 0.03 0.03 0.03 0.04 0.03 0.03 0.03 0.03 0.03 0.03 0.03 0.03 0.04 0.02 0.02 0.02 0.02 0.02 0.02 0.02 0.01 0.02 0.01 0.01 0.01 0.02 0.01 0.02 0.02 0.01 0.01 0.01 0.01 0.01 0.01 0.01 0.01 0.01
0.03 0.03 0.02 0.02 0.03 0.02 0.02 0.03 0.04 0.03 0.03 0.03 0.03 0.02 0.03 0.03 0.03 0.03 0.03 0.02 0.01 0.03 0.02 0.02 0.03 0.02 0.02 0.02 0.01 0.01 0.02 0.02 0.02 0.02 0.01 0.01 0.01 0.01 0.01 0.01 0.01 0.01 0.01
0.05 0.04 0.05 0.03 0.02 0.02 0.01 0.02 0.03 0.04 0.05 0.03 0.03 0.03 0.03 0.03 0.03 0.05 0.04 0.04 0.02 0.02 0.03 0.05 0.05 0.04 0.03 0.03 0.03 0.03 0.02 0.02 0.02 0.01 0.02 0.01 0.01 0.01 0.01 0.01 0.01 0.01 0.01
0.08 0.04 0.04 0.03 0.02 0.02 0.03 0.03 0.03 0.04 0.05 0.04 0.03 0.04 0.04 0.03 0.03 0.05 0.07 0.06 0.06 0.06 0.07 0.07 0.07 0.06 0.06 0.06 0.08 0.07 0.05 0.04 0.02 0.02 0.02 0.02 0.02 0.02 0.01 0.01 0.01 0.01 0.01
0.13 0.05 0.04 0.03 0.02 0.03 0.04 0.04 0.08 0.06 0.04 0.03 0.05 0.07 0.09 0.07 0.07 0.06 0.07 0.09 0.11 0.10 0.10 0.10 0.08 0.07 0.08 0.09 0.11 0.10 0.07 0.06 0.04 0.03 0.02 0.03 0.03 0.02 0.02 0.02 0.02 0.02 0.01
0.08 0.04 0.03 0.04 0.04 0.04 0.04 0.04 0.05 0.05 0.04 0.04 0.06 0.09 0.11 0.09 0.08 0.08 0.10 0.12 0.17 0.15 0.13 0.15 0.17 0.14 0.13 0.13 0.10 0.09 0.10 0.09 0.06 0.05 0.04 0.04 0.04 0.03 0.04 0.04 0.03 0.03 0.02
0.06 0.05 0.03 0.03 0.04 0.05 0.06 0.04 0.04 0.04 0.03 0.05 0.06 0.07 0.06 0.08 0.08 0.12 0.15 0.16 0.16 0.16 0.17 0.22 0.30 0.28 0.22 0.14 0.10 0.11 0.10 0.09 0.09 0.08 0.06 0.05 0.05 0.05 0.05 0.04 0.04 0.04 0.04
0.06 0.05 0.02 0.03 0.04 0.04 0.04 0.03 0.04 0.04 0.04 0.05 0.06 0.06 0.06 0.04 0.04 0.08 0.14 0.17 0.17 0.16 0.17 0.17 0.18 0.18 0.18 0.15 0.12 0.10 0.08 0.09 0.13 0.16 0.13 0.10 0.08 0.06 0.06 0.06 0.06 0.06 0.05
0.05 0.04 0.04 0.04 0.04 0.04 0.04 0.03 0.05 0.05 0.04 0.04 0.05 0.05 0.05 0.03 0.03 0.05 0.11 0.18 0.16 0.16 0.16 0.14 0.15 0.14 0.15 0.14 0.17 0.18 0.10 0.10 0.13 0.18 0.17 0.12 0.08 0.06 0.05 0.06 0.07 0.07 0.06
0.06 0.05 0.05 0.04 0.05 0.04 0.04 0.04 0.06 0.06 0.04 0.03 0.04 0.05 0.06 0.06 0.04 0.04 0.05 0.11 0.12 0.11 0.11 0.12 0.13 0.13 0.13 0.18 0.20 0.13 0.10 0.08 0.09 0.12 0.12 0.09 0.07 0.06 0.06 0.06 0.08 0.09 0.08
0.06 0.07 0.06 0.07 0.06 0.06 0.05 0.06 0.08 0.07 0.06 0.05 0.05 0.06 0.06 0.06 0.06 0.07 0.04 0.04 0.05 0.05 0.09 0.10 0.13 0.12 0.10 0.12 0.12 0.10 0.12 0.13 0.10 0.06 0.05 0.06 0.06 0.06 0.05 0.05 0.05 0.07 0.09
0.05 0.07 0.08 0.09 0.08 0.07 0.07 0.09 0.11 0.09 0.08 0.07 0.07 0.06 0.06 0.06 0.08 0.08 0.07 0.05 0.05 0.06 0.08 0.10 0.11 0.12 0.11 0.12 0.12 0.12 0.14 0.15 0.09 0.05 0.04 0.05 0.04 0.05 0.06 0.05 0.06 0.07 0.09
0.05 0.06 0.08 0.06 0.06 0.07 0.08 0.08 0.08 0.06 0.06 0.06 0.07 0.08 0.07 0.07 0.10 0.12 0.13 0.13 0.11 0.11 0.11 0.16 0.20 0.20 0.17 0.14 0.12 0.10 0.09 0.11 0.09 0.07 0.06 0.05 0.05 0.06 0.06 0.06 0.05 0.05 0.06
0.06 0.07 0.07 0.06 0.08 0.10 0.10 0.08 0.08 0.07 0.07 0.07 0.06 0.07 0.08 0.07 0.10 0.13 0.14 0.16 0.15 0.12 0.10 0.10 0.13 0.13 0.10 0.12 0.12 0.11 0.11 0.10 0.08 0.06 0.06 0.05 0.04 0.04 0.04 0.04 0.04 0.04 0.04
0.07 0.06 0.07 0.08 0.09 0.08 0.09 0.10 0.10 0.09 0.08 0.07 0.08 0.08 0.08 0.07 0.08 0.10 0.13 0.15 0.12 0.10 0.07 0.08 0.10 0.12 0.10 0.12 0.14 0.16 0.15 0.13 0.11 0.08 0.07 0.06 0.05 0.06 0.06 0.05 0.05 0.05 0.05
0.05 0.06 0.07 0.08 0.08 0.09 0.09 0.10 0.10 0.10 0.10 0.09 0.08 0.08 0.09 0.09 0.08 0.07 0.07 0.08 0.10 0.11 0.10 0.10 0.10 0.09 0.08 0.08 0.10 0.13 0.16 0.17 0.14 0.12 0.09 0.07 0.06 0.05 0.06 0.07 0.07 0.05 0.03
0.04 0.04 0.06 0.08 0.07 0.08 0.08 0.07 0.08 0.09 0.10 0.08 0.07 0.07 0.08 0.08 0.06 0.07 0.08 0.08 0.07 0.09 0.10 0.10 0.10 0.09 0.08 0.07 0.09 0.10 0.12 0.13 0.13 0.12 0.09 0.07 0.06 0.06 0.06 0.05 0.03 0.02 0.01
0.03 0.03 0.06 0.07 0.08 0.08 0.08 0.07 0.06 0.07 0.07 0.05 0.05 0.05 0.05 0.06 0.04 0.05 0.06 0.07 0.07 0.08 0.09 0.09 0.09 0.09 0.09 0.09 0.09 0.10 0.09 0.09 0.09 0.08 0.06 0.06 0.05 0.05 0.03 0.02 0.02 0.02 0.02
0.02 0.03 0.05 0.06 0.06 0.06 0.06 0.06 0.07 0.07 0.07 0.04 0.03 0.04 0.05 0.05 0.03 0.04 0.05 0.06 0.08 0.09 0.09 0.10 0.09 0.11 0.12 0.12 0.12 0.11 0.10 0.09 0.08 0.07 0.06 0.05 0.05 0.04 0.03 0.03 0.03 0.02 0.03
0.02 0.02 0.03 0.04 0.03 0.04 0.05 0.07 0.07 0.06 0.06 0.05 0.05 0.06 0.06 0.07 0.07 0.07 0.07 0.09 0.10 0.11 0.11 0.12 0.11 0.12 0.13 0.14 0.12 0.12 0.10 0.11 0.11 0.10 0.07 0.06 0.05 0.04 0.03 0.03 0.03 0.03 0.04
0.02 0.02 0.02 0.02 0.03 0.03 0.03 0.04 0.04 0.05 0.06 0.06 0.07 0.07 0.07 0.07 0.08 0.10 0.10 0.10 0.10 0.09 0.10 0.10 0.10 0.10 0.10 0.10 0.10 0.11 0.11 0.11 0.12 0.12 0.09 0.08 0.06 0.06 0.05 0.04 0.04 0.04 0.04
0.03 0.03 0.02 0.02 0.02 0.04 0.04 0.04 0.04 0.05 0.05 0.05 0.05 0.05 0.05 0.06 0.07 0.08 0.09 0.09 0.09 0.08 0.07 0.06 0.06 0.08 0.10 0.09 0.10 0.11 0.14 0.14 0.13 0.12 0.10 0.08 0.08 0.08 0.08 0.07 0.06 0.05 0.04
0.02 0.02 0.03 0.03 0.03 0.04 0.04 0.04 0.04 0.03 0.02 0.02 0.02 0.03 0.04 0.04 0.04 0.04 0.03 0.03 0.04 0.04 0.05 0.04 0.05 0.06 0.07 0.07 0.08 0.11 0.13 0.13 0.12 0.11 0.09 0.10 0.09 0.08 0.07 0.06 0.06 0.05 0.04
0.01 0.02 0.02 0.03 0.04 0.05 0.06 0.05 0.04 0.02 0.01 0.01 0.02 0.03 0.03 0.02 0.02 0.03 0.02 0.02 0.03 0.03 0.03 0.02 0.02 0.02 0.03 0.03 0.04 0.05 0.06 0.07 0.08 0.09 0.08 0.09 0.09 0.08 0.07 0.06 0.06 0.05 0.03
0.03 0.03 0.03 0.03 0.04 0.05 0.04 0.03 0.03 0.02 0.02 0.02 0.02 0.02 0.02 0.01 0.01 0.01 0.01 0.00 0.00 0.00 0.00 0.01 0.01 0.02 0.01 0.02 0.02 0.02 0.03 0.04 0.05 0.05 0.05 0.05 0.05 0.05 0.05 0.04 0.03 0.03 0.02
MSLP
1017.54 1017.79 1017.98 1018.10 1018.18 1018.23 1018.27 1018.31 1018.36 1018.43 1018.53 1018.64 1018.79 1018.95 1019.14 1019.35 1019.57 1019.81 1020.05 1020.28 1020.50 1020.70 1020.89 1021.07 1021.25 1021.43 1021.61 1021.81 1022.00 1022.19 1022.37 1022.53 1022.67 1022.79 1022.90 1022.99 1023.09 1023.18 1023.28 1023.36 1023.44 1023.50 1023.54
1017.56 1017.82 1018.02 1018.17 1018.27 1018.34 1018.39 1018.45 1018.52 1018.62 1018.74 1018.89 1019.05 1019.24 1019.43 1019.62 1019.81 1020.00 1020.18 1020.36 1020.53 1020.71 1020.89 1021.09 1021.29 1021.51 1021.73 1021.95 1022.15 1022.34 1022.49 1022.63 1022.74 1022.84 1022.94 1023.04 1023.15 1023.26 1023.38 1023.48 1023.57 1023.64 1023.69
1017.49 1017.73 1017.94 1018.11 1018.24 1018.35 1018.44 1018.54 1018.65 1018.79 1018.95 1019.13 1019.34 1019.54 1019.73 1019.91 1020.06 1020.19 1020.29 1020.40 1020.51 1020.64 1020.80 1021.00 1021.22 1021.47 1021.73 1021.97 1022.19 1022.37 1022.51 1022.62 1022.72 1022.80 1022.89 1023.00 1023.12 1023.26 1023.40 1023.53 1023.64 1023.72 1023.77
1017.36 1017.58 1017.78 1017.98 1018.15 1018.30 1018.45 1018.59 1018.76 1018.94 1019.15 1019.38 1019.61 1019.84 1020.03 1020.19 1020.29 1020.35 1020.37 1020.39 1020.42 1020.49 1020.61 1020.79 1021.02 1021.29 1021.58 1021.84 1022.08 1022.26 1022.40 1022.50 1022.57 1022.65 1022.74 1022.85 1022.99 1023.15 1023.32 1023.47 1023.60 1023.69 1023.75
1017.23 1017.41 1017.61 1017.83 1018.04 1018.24 1018.44 1018.64 1018.85 1019.09 1019.34 1019.61 1019.87 1020.11 1020.31 1020.43 1020.49 1020.48 1020.42 1020.34 1020.28 1020.28 1020.34 1020.49 1020.71 1020.99 1021.28 1021.56 1021.81 1022.00 1022.13 1022.23 1022.30 1022.37 1022.46 1022.59 1022.75 1022.93 1023.12 1023.30 1023.44 1023.55 1023.61
1017.13 1017.28 1017.48 1017.71 1017.96 1018.21 1018.45 1018.70 1018.96 1019.22 1019.51 1019.80 1020.09 1020.34 1020.53 1020.63 1020.65 1020.57 1020.44 1020.27 1020.13 1020.04 1020.04 1020.13 1020.32 1020.58 1020.86 1021.15 1021.39 1021.59 1021.72 1021.82 1021.89 1021.97 1022.08 1022.22 1022.40 1022.60 1022.81 1023.01 1023.17 1023.28 1023.36
1017.09 1017.20 1017.40 1017.65 1017.93 1018.21 1018.49 1018.77 1019.05 1019.34 1019.64 1019.94 1020.24 1020.49 1020.68 1020.77 1020.75 1020.64 1020.44 1020.21 1019.98 1019.82 1019.74 1019.77 1019.90 1020.12 1020.37 1020.63 1020.87 1021.06 1021.20 1021.30 1021.38 1021.47 1021.60 1021.76 1021.96 1022.19 1022.42 1022.63 1022.80 1022.92 1023.01
1017.09 1017.19 1017.38 1017.64 1017.94 1018.25 1018.55 1018.84 1019.12 1019.41 1019.70 1020.01 1020.30 1020.55 1020.74 1020.83 1020.81 1020.67 1020.44 1020.16 1019.87 1019.63 1019.48 1019.43 1019.50 1019.65 1019.85 1020.07 1020.28 1020.45 1020.58 1020.69 1020.79 1020.90 1021.04 1021.23 1021.46 1021.70 1021.95 1022.17 1022.36 1022.50 1022.60
1017.09 1017.19 1017.39 1017.66 1017.97 1018.28 1018.58 1018.86 1019.13 1019.40 1019.68 1019.96 1020.25 1020.51 1020.70 1020.80 1020.79 1020.66 1020.43 1020.12 1019.80 1019.51 1019.29 1019.16 1019.14 1019.21 1019.35 1019.51 1019.67 1019.81 1019.93 1020.04 1020.15 1020.28 1020.45 1020.66 1020.91 1021.18 1021.44 1021.68 1021.88 1022.04 1022.16
1017.07 1017.17 1017.37 1017.64 1017.95 1018.26 1018.55 1018.81 1019.05 1019.29 1019.53 1019.80 1020.07 1020.33 1020.55 1020.68 1020.70 1020.60 1020.39 1020.10 1019.76 1019.44 1019.16 1018.97 1018.86 1018.85 1018.90 1018.99 1019.09 1019.19 1019.29 1019.39 1019.50 1019.65 1019.83 1020.07 1020.34 1020.62 1020.91 1021.16 1021.38 1021.57 1021.72
1016.97 1017.08 1017.29 1017.56 1017.87 1018.16 1018.43 1018.65 1018.86 1019.05 1019.27 1019.51 1019.77 1020.04 1020.27 1020.44 1020.52 1020.47 1020.30 1020.04 1019.72 1019.39 1019.08 1018.83 1018.65 1018.56 1018.52 1018.53 1018.57 1018.62 1018.68 1018.76 1018.87 1019.02 1019.22 1019.46 1019.74 1020.04 1020.34 1020.62 1020.86 1021.08 1021.27
1016.80 1016.92 1017.13 1017.40 1017.69 1017.96 1018.20 1018.39 1018.55 1018.71 1018.89 1019.10 1019.35 1019.62 1019.88 1020.10 1020.23 1020.24 1020.14 1019.94 1019.66 1019.33 1019.01 1018.73 1018.50 1018.33 1018.22 1018.16 1018.13 1018.13 1018.15 1018.21 1018.30 1018.44 1018.63 1018.87 1019.14 1019.45 1019.75 1020.04 1020.32 1020.57 1020.81
1016.56 1016.70 1016.91 1017.17 1017.44 1017.68 1017.89 1018.04 1018.17 1018.28 1018.43 1018.61 1018.85 1019.12 1019.41 1019.66 1019.84 1019.92 1019.89 1019.75 1019.52 1019.24 1018.93 1018.63 1018.37 1018.16 1017.99 1017.87 1017.79 1017.74 1017.72 1017.74 1017.80 1017.91 1018.08 1018.30 1018.56 1018.85 1019.15 1019.45 1019.75 1020.05 1020.35
1016.31 1016.45 1016.66 1016.91 1017.15 1017.37 1017.54 1017.66 1017.75 1017.83 1017.94 1018.09 1018.31 1018.58 1018.87 1019.15 1019.37 1019.51 1019.55 1019.47 1019.30 1019.07 1018.79 1018.51 1018.25 1018.02 1017.83 1017.67 1017.55 1017.47 1017.41 1017.39 1017.42 1017.49 1017.62 1017.80 1018.03 1018.29 1018.58 1018.89 1019.21 1019.55 1019.92
1016.09 1016.23 1016.43 1016.66 1016.89 1017.08 1017.22 1017.31 1017.36 1017.41 1017.48 1017.61 1017.79 1018.04 1018.32 1018.61 1018.86 1019.03 1019.12 1019.10 1019.00 1018.82 1018.59 1018.35 1018.11 1017.90 1017.71 1017.55 1017.41 1017.31 1017.23 1017.19 1017.18 1017.21 1017.30 1017.43 1017.61 1017.84 1018.10 1018.41 1018.75 1019.13 1019.56
1015.93 1016.07 1016.26 1016.48 1016.69 1016.86 1016.97 1017.04 1017.06 1017.08 1017.11 1017.20 1017.35 1017.57 1017.82 1018.09 1018.34 1018.54 1018.65 1018.68 1018.63 1018.51 1018.34 1018.15 1017.96 1017.78 1017.62 1017.48 1017.36 1017.27 1017.19 1017.14 1017.11 1017.11 1017.16 1017.25 1017.38 1017.57 1017.81 1018.10 1018.46 1018.88 1019.36
1015.84 1015.99 1016.18 1016.39 1016.58 1016.74 1016.84 1016.88 1016.88 1016.87 1016.88 1016.93 1017.04 1017.21 1017.42 1017.66 1017.89 1018.07 1018.20 1018.25 1018.23 1018.16 1018.04 1017.91 1017.77 1017.65 1017.55 1017.46 1017.38 1017.32 1017.28 1017.24 1017.22 1017.21 1017.24 1017.31 1017.41 1017.57 1017.79 1018.08 1018.44 1018.88 1019.40
1015.81 1015.97 1016.16 1016.37 1016.56 1016.71 1016.80 1016.84 1016.83 1016.80 1016.78 1016.80 1016.87 1016.99 1017.16 1017.35 1017.53 1017.69 1017.80 1017.86 1017.86 1017.81 1017.74 1017.66 1017.58 1017.52 1017.48 1017.46 1017.45 1017.45 1017.46 1017.47 1017.48 1017.51 1017.55 1017.62 1017.73 1017.88 1018.09 1018.38 1018.74 1019.20 1019.74
1015.80 1015.98 1016.19 1016.41 1016.61 1016.76 1016.86 1016.89 1016.88 1016.85 1016.82 1016.81 1016.85 1016.93 1017.05 1017.19 1017.33 1017.44 1017.52 1017.56 1017.56 1017.52 1017.47 1017.42 1017.39 1017.39 1017.41 1017.45 1017.52 1017.60 1017.69 1017.78 1017.87 1017.96 1018.06 1018.17 1018.31 1018.49 1018.71 1019.01 1019.38 1019.84 1020.38
1015.78 1015.99 1016.22 1016.46 1016.68 1016.84 1016.96 1017.01 1017.01 1016.98 1016.95 1016.93 1016.95 1017.00 1017.09 1017.18 1017.27 1017.35 1017.38 1017.39 1017.36 1017.32 1017.27 1017.23 1017.23 1017.26 1017.33 1017.44 1017.58 1017.74 1017.92 1018.11 1018.30 1018.49 1018.68 1018.88 1019.08 1019.32 1019.59 1019.90 1020.28 1020.74 1021.26
1015.75 1015.98 1016.24 1016.51 1016.74 1016.93 1017.06 1017.14 1017.16 1017.15 1017.14 1017.13 1017.15 1017.19 1017.25 1017.31 1017.37 1017.40 1017.40 1017.36 1017.30 1017.23 1017.16 1017.12 1017.11 1017.16 1017.26 1017.41 1017.61 1017.86 1018.13 1018.42 1018.72 1019.02 1019.33 1019.64 1019.94 1020.26 1020.59 1020.94 1021.34 1021.78 1022.27
1015.70 1015.97 1016.26 1016.54 1016.80 1017.01 1017.16 1017.26 1017.31 1017.33 1017.34 1017.36 1017.40 1017.44 1017.50 1017.55 1017.58 1017.58 1017.55 1017.47 1017.38 1017.27 1017.16 1017.09 1017.07 1017.11 1017.21 1017.39 1017.63 1017.93 1018.27 1018.66 1019.07 1019.49 1019.91 1020.34 1020.76 1021.16 1021.57 1021.97 1022.38 1022.81 1023.25
1015.70 1015.99 1016.30 1016.59 1016.86 1017.08 1017.25 1017.36 1017.44 1017.49 1017.54 1017.59 1017.65 1017.72 1017.79 1017.85 1017.88 1017.87 1017.81 1017.71 1017.57 1017.43 1017.29 1017.18 1017.13 1017.14 1017.23 1017.40 1017.65 1017.98 1018.37 1018.82 1019.31 1019.83 1020.36 1020.89 1021.41 1021.91 1022.38 1022.83 1023.26 1023.67 1024.07
1015.80 1016.10 1016.41 1016.70 1016.96 1017.17 1017.33 1017.46 1017.55 1017.62 1017.70 1017.79 1017.89 1017.99 1018.09 1018.17 1018.20 1018.19 1018.13 1018.02 1017.87 1017.70 1017.53 1017.40 1017.31 1017.28 1017.34 1017.49 1017.72 1018.05 1018.45 1018.92 1019.45 1020.03 1020.62 1021.23 1021.82 1022.38 1022.91 1023.40 1023.84 1024.24 1024.60
1016.05 1016.34 1016.62 1016.89 1017.12 1017.30 1017.45 1017.56 1017.65 1017.74 1017.84 1017.95 1018.08 1018.22 1018.35 1018.46 1018.52 1018.53 1018.48 1018.37 1018.23 1018.06 1017.88 1017.73 1017.61 1017.56 1017.59 1017.70 1017.90 1018.19 1018.56 1019.02 1019.54 1020.12 1020.73 1021.36 1021.98 1022.58 1023.14 1023.64 1024.09 1024.47 1024.79
1016.46 1016.72 1016.97 1017.18 1017.36 1017.49 1017.59 1017.67 1017.75 1017.84 1017.95 1018.08 1018.24 1018.40 1018.56 1018.70 1018.79 1018.83 1018.81 1018.73 1018.61 1018.46 1018.30 1018.16 1018.04 1017.98 1017.98 1018.05 1018.21 1018.44 1018.76 1019.16 1019.63 1020.16 1020.73 1021.33 1021.94 1022.52 1023.08 1023.58 1024.02 1024.39 1024.69
Thickness
5751 5750 5749 5749 5749 5748 5748 5748 5748 5747 5747 5746 5745 5744 5743 5742 5741 5740 5738 5737 5735 5733 5732 5731 5729 5727 5725 5724 5723 5721 5720 5719 5717 5716 5714 5713 5712 5710 5709 5707 5705 5704 5702
5752 5750 5749 5748 5748 5748 5748 5747 5747 5747 5746 5746 5745 5745 5744 5742 5741 5740 5738 5737 5735 5734 5732 5731 5729 5727 5725 5723 5722 5721 5719 5718 5716 5715 5714 5712 5711 5709 5708 5706 5704 5703 5701
5753 5751 5750 5748 5748 5748 5748 5747 5747 5746 5746 5745 5745 5745 5744 5743 5741 5740 5738 5737 5735 5734 5732 5731 5729 5727 5725 5723 5722 5720 5719 5717 5716 5715 5713 5712 5710 5709 5707 5705 5704 5702 5700
5753 5752 5750 5749 5749 5749 5748 5747 5746 5745 5744 5743 5743 5744 5743 5742 5741 5739 5738 5737 5735 5734 5732 5730 5728 5727 5725 5723 5722 5720 5718 5717 5715 5714 5712 5711 5709 5708 5706 5704 5703 5701 5699
5753 5752 5751 5750 5749 5749 5748 5748 5746 5745 5742 5742 5742 5742 5742 5741 5740 5739 5737 5736 5735 5733 5731 5730 5728 5727 5726 5724 5722 5720 5718 5716 5715 5714 5712 5711 5709 5707 5706 5704 5702 5700 5698
5754 5752 5751 5751 5750 5748 5747 5747 5745 5744 5743 5742 5742 5741 5741 5741 5740 5739 5737 5736 5735 5733 5731 5729 5728 5727 5726 5724 5722 5721 5719 5717 5715 5714 5712 5710 5709 5707 5705 5703 5701 5699 5697
5754 5753 5752 5751 5749 5748 5746 5746 5744 5742 5741 5741 5737 5734 5736 5739 5739 5738 5737 5736 5735 5733 5731 5729 5728 5727 5725 5724 5722 5720 5719 5717 5715 5714 5712 5710 5708 5706 5704 5702 5700 5698 5696
5754 5753 5752 5750 5749 5747 5746 5745 5743 5740 5739 5740 5734 5728 5725 5727 5733 5737 5736 5735 5734 5733 5731 5729 5728 5726 5724 5723 5721 5720 5719 5717 5715 5713 5711 5709 5706 5705 5702 5700 5698 5696 5694
5754 5753 5752 5750 5749 5748 5746 5745 5743 5740 5736 5737 5737 5730 5721 5718 5723 5730 5732 5733 5733 5731 5730 5729 5727 5725 5723 5722 5720 5719 5717 5716 5714 5712 5709 5707 5705 5703 5701 5699 5696 5694 5692
5753 5752 5751 5750 5749 5747 5746 5745 5745 5742 5738 5734 5735 5735 5732 5729 5722 5720 5725 5728 5730 5729 5728 5727 5725 5723 5721 5720 5718 5717 5716 5714 5712 5710 5707 5705 5703 5701 5698 5696 5693 5691 5689
5753 5752 5750 5749 5748 5747 5746 5745 5744 5743 5741 5737 5734 5733 5731 5729 5727 5720 5716 5719 5722 5724 5725 5724 5723 5721 5719 5717 5716 5714 5713 5712 5709 5707 5704 5702 5699 5697 5694 5692 5689 5687 5684
5751 5750 5750 5749 5747 5746 5745 5745 5744 5742 5741 5739 5737 5734 5731 5727 5724 5721 5716 5715 5715 5718 5720 5720 5718 5717 5715 5714 5713 5712 5710 5708 5705 5703 5700 5698 5695 5692 5689 5686 5684 5681 5678
5748 5749 5749 5748 5746 5745 5745 5744 5742 5741 5740 5738 5737 5735 5733 5731 5728 5724 5719 5714 5712 5713 5714 5714 5714 5713 5711 5710 5708 5707 5705 5703 5700 5698 5695 5692 5690 5686 5684 5680 5678 5675 5672
5749 5749 5748 5746 5745 5744 5743 5742 5741 5740 5739 5737 5736 5734 5732 5731 5729 5725 5721 5715 5708 5707 5707 5707 5708 5707 5706 5705 5703 5701 5699 5697 5694 5691 5689 5686 5683 5680 5677 5674 5670 5667 5664
5749 5748 5746 5745 5744 5743 5742 5740 5739 5738 5736 5735 5733 5732 5730 5729 5728 5726 5723 5719 5710 5703 5701 5702 5702 5702 5700 5698 5697 5694 5692 5690 5687 5684 5681 5678 5675 5672 5669 5665 5663 5659 5656
5748 5746 5745 5743 5742 5741 5739 5737 5736 5735 5733 5731 5730 5728 5727 5726 5725 5723 5721 5718 5715 5708 5701 5700 5699 5697 5695 5692 5689 5687 5684 5682 5679 5677 5674 5671 5667 5664 5660 5657 5654 5650 5647
5747 5744 5742 5741 5740 5738 5737 5735 5733 5731 5729 5728 5727 5725 5724 5723 5721 5720 5718 5716 5712 5708 5700 5696 5694 5691 5688 5685 5683 5679 5676 5673 5670 5667 5664 5661 5658 5655 5651 5647 5644 5641 5637
5745 5743 5741 5739 5737 5735 5734 5732 5730 5728 5725 5723 5722 5721 5720 5720 5718 5716 5715 5712 5709 5707 5700 5692 5687 5684 5681 5678 5675 5671 5667 5664 5661 5657 5655 5652 5648 5645 5642 5638 5635 5631 5628
5742 5740 5738 5735 5733 5732 5730 5728 5726 5724 5722 5720 5719 5717 5716 5715 5713 5712 5710 5708 5705 5702 5698 5691 5684 5679 5674 5671 5667 5662 5658 5654 5652 5648 5645 5642 5639 5635 5632 5629 5625 5621 5617
5739 5736 5734 5732 5730 5728 5726 5724 5722 5720 5717 5716 5715 5714 5713 5711 5709 5708 5706 5703 5700 5695 5691 5685 5679 5673 5667 5663 5659 5654 5648 5645 5642 5639 5636 5632 5629 5625 5622 5619 5615 5611 5607
5736 5733 5730 5727 5725 5723 5722 5719 5718 5716 5713 5711 5710 5709 5708 5707 5706 5704 5701 5698 5694 5690 5685 5679 5673 5666 5661 5656 5652 5647 5642 5637 5633 5630 5626 5623 5619 5615 5611 5608 5605 5601 5598
5730 5727 5724 5721 5719 5718 5716 5715 5713 5710 5708 5705 5703 5702 5702 5701 5700 5698 5695 5693 5690 5685 5679 5674 5668 5662 5657 5652 5647 5641 5635 5630 5624 5621 5618 5613 5610 5606 5602 5599 5595 5592 5588
5725 5722 5718 5716 5713 5711 5710 5709 5707 5705 5702 5699 5697 5695 5694 5693 5691 5689 5687 5685 5681 5678 5675 5671 5664 5659 5653 5649 5642 5635 5630 5625 5620 5615 5610 5603 5600 5596 5593 5589 5586 5581 5577
5721 5717 5713 5711 5708 5705 5704 5703 5701 5698 5695 5691 5689 5687 5685 5683 5682 5680 5677 5674 5670 5667 5665 5663 5659 5654 5650 5644 5639 5633 5625 5618 5612 5607 5603 5596 5591 5587 5584 5580 5577 5572 5567
5715 5711 5708 5705 5701 5699 5697 5696 5694 5690 5686 5683 5680 5679 5677 5675 5673 5671 5668 5664 5660 5657 5655 5652 5649 5645 5641 5636 5631 5624 5617 5611 5603 5598 5594 5589 5583 5578 5574 5571 5567 5562 5557
5709 5706 5702 5698 5695 5692 5691 5689 5687 5683 5678 5674 5672 5670 5668 5666 5664 5662 5659 5656 5651 5647 5644 5641 5638 5634 5631 5627 5622 5617 5611 5604 5596 5590 5586 5582 5576 5570 5564 5561 5557 5553 5548